New Paris, IN

5:17 PM EDT on August 30, 2016 (GMT -0400)
Goshen Municipal

Weather History for KGSH - December, 2011

Change the Weather History Date:

Wednesday, December 7, 2011

  Actual Average Record
Temperature  
Mean Temperature 31 °F -  
Max Temperature 37 °F 37 °F 62 °F (1951)
Min Temperature 25 °F 27 °F -1 °F (1977)
Degree Days  
Heating Degree Days 34    
Moisture  
Dew Point 22 °F    
Average Humidity 70    
Maximum Humidity 86    
Minimum Humidity 50    
Precipitation  
Precipitation 0.00 in - - ()
Sea Level Pressure  
Sea Level Pressure 30.06 in    
Wind  
Wind Speed 7 mph (West)    
Max Wind Speed 16 mph    
Max Gust Speed 21 mph    
Visibility 10 miles    
Events      
Averages and records for this station are not official NWS values.
T = Trace of Precipitation, MM = Missing Value Source: NWS Daily Summary

Daily Weather History Graph

Daily Weather History Graph

Search for Another Location

Airport or City:

Trip Planner

Search our weather history database for the weather conditions in past years. The results will help you decide how hot, cold, wet, or windy it might be!

Date:

Astronomy

Dec. 07, 2011 Rise Set
Actual Time 7:55 AM EST 5:13 PM EST
Civil Twilight 7:24 AM EST 5:44 PM EST
Nautical Twilight 6:50 AM EST 6:18 PM EST
Astronomical Twilight 6:16 AM EST 6:52 PM EST
Moon 3:14 PM EST (12/7) 5:09 AM EST (12/7)
Length of Visible Light 10h 19m
Length of Day
9h 17m
Waxing Gibbous, 92% of the Moon is Illuminated
Dec 7
Waxing Gibbous
Dec 10
Full
Dec 17
Last Quarter
Dec 24
New
Jan 1
First Quarter

Hourly Weather History & Observations

Time (EST) Temp. Windchill Dew Point Humidity Pressure Visibility Wind Dir Wind Speed Gust Speed Precip Events Conditions
12:53 AM 25.0 °F 20.7 °F 21.0 °F 85% 30.15 in 10.0 mi West 3.5 mph - N/A   Clear
1:45 AM 28.4 °F 23.3 °F 23.0 °F 80% 30.10 in 10.0 mi WNW 4.6 mph - N/A   Mostly Cloudy
1:53 AM 28.0 °F 24.2 °F 23.0 °F 81% 30.13 in 10.0 mi NW 3.5 mph - N/A   Overcast
2:29 AM 28.4 °F - 24.8 °F 86% 30.09 in 10.0 mi Calm Calm - N/A   Overcast
2:53 AM 28.9 °F - 24.1 °F 82% 30.11 in 10.0 mi Calm Calm - N/A   Overcast
3:53 AM 25.0 °F - 21.0 °F 85% 30.11 in 10.0 mi Calm Calm - N/A   Partly Cloudy
4:53 AM 28.0 °F 24.2 °F 23.0 °F 81% 30.08 in 10.0 mi ENE 3.5 mph - N/A   Overcast
5:53 AM 28.9 °F - 25.0 °F 85% 30.09 in 10.0 mi Calm Calm - N/A   Overcast
6:53 AM 30.0 °F 25.2 °F 25.0 °F 82% 30.08 in 10.0 mi West 4.6 mph - N/A   Overcast
8:53 AM 30.9 °F 25.2 °F 26.1 °F 82% 30.06 in 10.0 mi SW 5.8 mph - N/A   Overcast
9:53 AM 32.0 °F 25.6 °F 26.1 °F 79% 30.06 in 10.0 mi WSW 6.9 mph - N/A   Overcast
10:53 AM 35.1 °F 26.4 °F 26.1 °F 70% 30.06 in 10.0 mi West 12.7 mph - N/A   Clear
11:21 AM 35.6 °F 26.6 °F 26.6 °F 70% 30.02 in 10.0 mi West 13.8 mph - N/A   Mostly Cloudy
11:30 AM 35.6 °F 26.2 °F 26.6 °F 70% 30.02 in 10.0 mi West 15.0 mph - N/A   Mostly Cloudy
11:53 AM 34.0 °F 25.5 °F 24.1 °F 67% 30.04 in 10.0 mi West 11.5 mph - N/A   Mostly Cloudy
12:17 PM 35.6 °F 25.9 °F 24.8 °F 65% 30.00 in 10.0 mi WSW 16.1 mph - N/A   Mostly Cloudy
12:34 PM 35.6 °F 27.1 °F 24.8 °F 65% 30.00 in 10.0 mi WSW 12.7 mph - N/A   Mostly Cloudy
12:53 PM 35.1 °F 27.4 °F 24.1 °F 64% 30.02 in 10.0 mi WNW 10.4 mph 20.7 mph N/A   Mostly Cloudy
1:53 PM 37.0 °F 29.3 °F 21.9 °F 54% 29.99 in 10.0 mi West 11.5 mph - N/A   Partly Cloudy
3:53 PM 36.0 °F 27.1 °F 19.9 °F 52% 30.00 in 10.0 mi WSW 13.8 mph - N/A   Clear
4:53 PM 34.0 °F 26.0 °F 17.1 °F 50% 30.00 in 10.0 mi WSW 10.4 mph - N/A   Clear
5:53 PM 32.0 °F 23.0 °F 16.0 °F 52% 30.02 in 10.0 mi West 11.5 mph - N/A   Clear
6:53 PM 30.9 °F 20.7 °F 16.0 °F 54% 30.04 in 10.0 mi West 13.8 mph - N/A   Clear
7:53 PM 30.0 °F 19.5 °F 16.0 °F 56% 30.04 in 10.0 mi West 13.8 mph - N/A   Clear
8:53 PM 30.0 °F 19.5 °F 17.1 °F 59% 30.06 in 10.0 mi West 13.8 mph - N/A   Clear
9:53 PM 30.0 °F 20.5 °F 19.0 °F 64% 30.06 in 10.0 mi West 11.5 mph - N/A   Mostly Cloudy
10:21 PM 30.2 °F 21.3 °F 19.4 °F 64% 30.03 in 10.0 mi WSW 10.4 mph - N/A   Overcast
10:53 PM 30.0 °F 21.7 °F 19.9 °F 66% 30.07 in 10.0 mi WSW 9.2 mph - N/A   Overcast
11:53 PM 30.9 °F 23.5 °F 21.9 °F 69% 30.09 in 10.0 mi West 8.1 mph - N/A   Overcast